User: anonymous   Login
Location: Unspecified
(0.0000°N, 0.0000°E)
Time: 02:12:50
(UTC+00:00)
Language:

ONEWEB-0324 - Orbit

View from above orbital plane
View from above orbital plane
View from above satellite
View from above satellite

Ground track
Ground track

The orbit is defined by the following mean orbital elements,

1 49193U          26145.29638385 +.00000000 +00000-0 -48936-4 0 00006
2 49193  87.9170 340.0046 0001756  92.9653 267.1680 13.18685538    08
Epoch (UTC): 25 May 2026 07:06:47
Eccentricity: 0.0001756
inclination: 87.9170°
perigee height: 1188 km
apogee height: 1191 km
right ascension of ascending node: 340.0046°
argument of perigee: 92.9653°
revolutions per day: 13.18685538
mean anomaly at epoch: 267.1680°

The dashed part of the orbit path shows where the satellite is in the earth's shadow,  

DLR